Hourly Data Report for October 24, 2014

All times are specified in Local Standard Time (LST). Add 1 hour to adjust for Daylight Saving Time where and when it is observed.

ARVIAT A
NUNAVUT

61°05'38.000" N
94°04'18.000" W
10.40 m
2300427
71174
YEK

Download Data

Hourly Data (October 2014)
Hourly Data Report for October 24, 2014
Temp Definition
°C
Dew Point Temp Definition
°C
Rel Hum Definition
%
Wind Dir Definition
10's deg

Wind Spd Definition
km/h
Visibility Definition
km
Stn Press Definition
kPa
Hmdx Definition


Wind Chill Definition


Weather Definition


TIME
00:00 Legend Double Dagger 0.8 -0.2 93 10 46 16.1 101.33     LegendNANA
01:00 Legend Double Dagger 0.8 -0.6 91 10 50 14.5 101.30     LegendNANA
02:00 Legend Double Dagger 0.8 -0.5 91 9 43 14.5 101.25     LegendNANA
03:00 Legend Double Dagger 0.9 -0.1 93 9 41 14.5 101.19     LegendNANA
04:00 Legend Double Dagger 0.9 -0.4 91 9 50 14.5 101.09     LegendNANA
05:00 Legend Double Dagger 1.0 -0.2 92 10 46 12.9 101.00     LegendNANA
06:00 Legend Double Dagger 1.2 -0.1 91 10 50 9.7 100.89     Fog
07:00 Legend Double Dagger 1.3 -0.1 90 10 55 11.3 100.80     LegendNANA
08:00 Legend Double Dagger 1.3 0.1 92 9 52 9.7 100.74     Fog
09:00 Legend Double Dagger 1.3 -0.1 91 10 54 9.7 100.67     Fog
10:00 Legend Double Dagger 1.4 -0.2 89 9 52 9.7 100.61     Fog
11:00 Legend Double Dagger 1.0 -0.2 92 10 50 4.0 100.54     Snow
12:00 Legend Double Dagger 0.7 0.1 96 10 45 3.2 100.48     Snow
13:00 Legend Double Dagger 0.6 0.2 97 10 45 2.0 100.40     Snow
14:00 Legend Double Dagger 0.8 0.4 97 9 46 4.0 100.30     Snow
15:00 Legend Double Dagger 0.7 0.4 98 9 52 4.8 100.21     Snow
16:00 Legend Double Dagger 0.7 0.4 98 9 45 4.0 100.18     Snow
17:00 Legend Double Dagger 1.0 0.7 98 9 46 3.6 100.14     Rain,Fog
18:00 Legend Double Dagger 1.0 0.7 98 9 43 3.2 100.09     Rain,Fog
19:00 Legend Double Dagger 0.8 0.7 99 9 45 3.6 100.05     Rain,Fog
20:00 Legend Double Dagger 0.9 0.8 99 9 39 4.0 99.99     Snow
21:00 Legend Double Dagger 1.1 0.7 97 9 43 9.7 99.95     Rain,Fog
22:00 Legend Double Dagger 1.3 0.7 96 8 43 14.5 99.88     LegendNANA
23:00 Legend Double Dagger 1.2 0.3 94 9 43 16.1 99.86     LegendNANA

Notes on Data Quality.

Legend

  • E = Estimated
  • M = Missing
  • NA = Not Available
  • ‡ = Partner data that is not subject to review by the National Climate Archives
Date modified: